Simultaneous Nadir Overpasses (SNOs) Predictions

Prediction of SNOs between AQUA and METOP-C Satellite Orbit:

Table of predicted SNOs for the next 14.0 days since TLE Epoch: 3/26/2022
Index Date (AQUA) Time (AQUA) Lat,Lon (AQUA) SZA (AQUA ) Date (METOP-C) Time (METOP-C) Lat,Lon (METOP-C) SZA (METOP-C ) Distance(km) Time Diff (sec)
1 03/26/2022 19:48:52 73.80,-122.65 71.40 03/26/2022 19:48:13 73.81,-122.60 71.41 1.69 39
2 03/26/2022 20:38:18 -73.84, 44.91 108.58 03/26/2022 20:38:54 -73.85, 44.81 108.58 3.14 36
3 03/29/2022 14:33:16 -73.16, 137.57 110.38 03/29/2022 14:32:10 -73.10, 134.85 110.34 88.09 66
4 03/29/2022 15:22:56 73.82, -56.18 70.30 03/29/2022 15:22:36 73.79, -56.24 70.29 3.11 20
5 03/29/2022 16:12:23 -73.90, 111.27 109.62 03/29/2022 16:13:16 -73.87, 111.28 109.66 3.34 53
6 04/01/2022 10:07:30 -73.77,-157.22 110.84 04/01/2022 10:06:18 -73.77,-157.22 110.82 0.29 72
7 04/01/2022 10:56:59 73.86, 10.23 69.25 04/01/2022 10:56:57 73.82, 10.23 69.22 3.75 2
8 04/01/2022 11:46:25 -73.89, 177.81 110.74 04/01/2022 11:47:37 -73.90, 177.74 110.73 2.46 72
9 04/04/2022 05:41:33 -73.78, -90.73 111.92 04/04/2022 05:40:40 -73.79, -90.77 111.89 1.93 53
10 04/04/2022 06:31:02 73.87, 76.71 68.17 04/04/2022 06:31:19 73.85, 76.70 68.15 2.39 17
11 04/04/2022 07:20:41 -74.56,-117.27 111.10 04/04/2022 07:21:46 -74.55,-114.19 111.21 91.04 65
12 04/07/2022 01:15:36 -73.81, -24.29 112.96 04/07/2022 01:15:02 -73.80, -24.33 112.95 1.22 34
13 04/07/2022 02:05:04 73.85, 143.25 67.08 04/07/2022 02:05:41 73.86, 143.15 67.10 3.50 37



Historial Predications of SNOs between AQUA and METOP-C
